Baku, Azerbaijan

11:15 PM +04 on September 18, 2018 (GMT +0400)
Bina

Weather History for UBBB - March, 2018

Change the Weather History Date:

Sunday, March 18, 2018

  Actual Average Record
Temperature  
Mean Temperature 47 °F -  
Max Temperature 53 °F - - ()
Min Temperature 41 °F - - ()
Degree Days  
Heating Degree Days 18    
Moisture  
Dew Point 45 °F    
Average Humidity 90    
Maximum Humidity 100    
Minimum Humidity 75    
Precipitation  
Precipitation 0.00 in - - ()
Sea Level Pressure  
Sea Level Pressure 29.96 in    
Wind  
Wind Speed 7 mph ()    
Max Wind Speed 21 mph    
Max Gust Speed -    
Visibility 5.4 miles    
Events      
T = Trace of Precipitation, MM = Missing Value Source: Averaged Metar Reports

Daily Weather History Graph

Daily Weather History Graph

Search for Another Location

Airport or City:

Astronomy

Mar. 18, 2018 Rise Set
Actual Time 6:46 AM +04 6:49 PM +04
Civil Twilight 6:19 AM +04 7:16 PM +04
Nautical Twilight 5:48 AM +04 7:48 PM +04
Astronomical Twilight 5:15 AM +04 8:20 PM +04
Moon 7:27 AM +04 7:45 PM +04
Length of Visible Light 12h 56m
Length of Day
12h 02m
New Moon, 1% of the Moon is Illuminated
Mar 18
New Moon
Mar 24
First Quarter
Mar 31
Full
Apr 8
Last Quarter
Apr 16
New

Hourly Weather History & Observations

Time (+04) Temp. Windchill Dew Point Humidity Pressure Visibility Wind Dir Wind Speed Gust Speed Precip Events Conditions
12:00 AM 42.8 °F 40.1 °F 41.0 °F 93% 30.01 in 6.2 mi NW 4.6 mph - N/A   Overcast
12:30 AM 42.8 °F 40.1 °F 41.0 °F 93% 30.01 in 6.2 mi NW 4.6 mph - N/A   Overcast
1:00 AM 43 °F - 40 °F 84% 29.99 in 6 mi Calm Calm - -   Overcast
1:00 AM 42.8 °F 41.1 °F 41.0 °F 93% 29.98 in 5.0 mi North 3.5 mph - N/A   Overcast
1:30 AM 42.8 °F - 41.0 °F 93% 29.98 in 5.0 mi Calm Calm - N/A   Overcast
2:00 AM 42.8 °F 41.1 °F 41.0 °F 93% 29.98 in 5.0 mi SSE 3.5 mph - N/A   Overcast
2:30 AM 42.8 °F 38.6 °F 42.8 °F 100% 29.98 in - SE 6.9 mph - N/A   Overcast
3:00 AM 44.6 °F 41.4 °F 42.8 °F 93% 29.95 in - SSE 5.8 mph - N/A   Overcast
3:30 AM 44.6 °F 40.7 °F 42.8 °F 93% 29.95 in 1.7 mi SSE 6.9 mph - N/A   Overcast
4:00 AM 44 °F - 41 °F 87% 29.95 in 6 mi SE 8.9 mph - -   Overcast
4:00 AM 44.6 °F 39.7 °F 42.8 °F 93% 29.95 in - South 9.2 mph - N/A   Overcast
4:30 AM 44.6 °F 39.7 °F 42.8 °F 93% 29.95 in 1.6 mi SSE 9.2 mph - N/A   Overcast
5:00 AM 46.4 °F 42.9 °F 44.6 °F 93% 29.95 in 3.1 mi South 6.9 mph - N/A   Overcast
5:30 AM 46.4 °F 41.9 °F 44.6 °F 93% 29.95 in 5.0 mi South 9.2 mph - N/A   Overcast
6:00 AM 46.4 °F 42.9 °F 44.6 °F 93% 29.95 in 5.0 mi South 6.9 mph - N/A   Overcast
6:30 AM 46.4 °F 43.5 °F 44.6 °F 93% 29.95 in 6.2 mi SSE 5.8 mph - N/A   Overcast
7:00 AM 46 °F - 44 °F 88% 29.96 in 6 mi SSE 6.7 mph - -   Overcast
7:00 AM 46.4 °F 43.5 °F 44.6 °F 93% 29.95 in 6.2 mi SSE 5.8 mph - N/A   Overcast
7:30 AM 46.4 °F - 44.6 °F 93% 29.98 in 6.2 mi SSW 2.3 mph - N/A   Overcast
8:00 AM 46.4 °F 45.2 °F 44.6 °F 93% 29.98 in 6.2 mi SW 3.5 mph - N/A   Overcast
8:30 AM 46.4 °F 43.5 °F 44.6 °F 93% 29.98 in 5.0 mi WNW 5.8 mph - N/A   Overcast
9:00 AM 46.4 °F 43.5 °F 44.6 °F 93% 30.01 in 4.3 mi West 5.8 mph - N/A   Overcast
9:30 AM 46.4 °F 45.2 °F 44.6 °F 93% 30.01 in 4.3 mi WNW 3.5 mph - N/A   Overcast
10:00 AM 46 °F - 44 °F 88% 30.01 in 6 mi Calm Calm - -   Overcast
10:00 AM 46.4 °F - 44.6 °F 93% 30.01 in 5.0 mi Calm Calm - N/A   Overcast
10:30 AM 48.2 °F - 44.6 °F 87% 30.01 in 5.0 mi SSE 3.5 mph - N/A   Overcast
11:00 AM 48.2 °F - 44.6 °F 87% 30.01 in 6.2 mi ESE 5.8 mph - N/A   Overcast
11:30 AM 50.0 °F - 46.4 °F 87% 30.01 in 6.2 mi SSE 6.9 mph - N/A   Overcast
12:00 PM 51.8 °F - 46.4 °F 82% 29.98 in 6.2 mi South 5.8 mph - N/A   Mostly Cloudy
12:30 PM 50.0 °F - 46.4 °F 87% 29.98 in 6.2 mi South 11.5 mph - N/A   Mostly Cloudy
1:00 PM 52 °F - 46 °F 75% 29.99 in 6 mi SE 8.9 mph - -   Mostly Cloudy
1:00 PM 51.8 °F - 46.4 °F 82% 29.98 in 6.2 mi SSE 9.2 mph - N/A   Mostly Cloudy
1:30 PM 51.8 °F - 46.4 °F 82% 29.98 in 6.2 mi South 10.4 mph - N/A   Scattered Clouds
2:00 PM 51.8 °F - 46.4 °F 82% 29.95 in 6.2 mi SSE 12.7 mph - N/A   Mostly Cloudy
2:30 PM 51.8 °F - 46.4 °F 82% 29.95 in 6.2 mi South 15.0 mph - N/A   Mostly Cloudy
3:00 PM 50.0 °F - 46.4 °F 87% 29.95 in 6.2 mi SSE 18.4 mph - N/A   Mostly Cloudy
3:30 PM 50.0 °F - 46.4 °F 87% 29.95 in 5.0 mi South 18.4 mph - N/A   Mostly Cloudy
4:00 PM 50 °F - 47 °F 86% 29.94 in 6 mi SSE 17.9 mph - -   Mostly Cloudy
4:00 PM 50.0 °F - 48.2 °F 94% 29.95 in 4.3 mi South 15.0 mph - N/A   Overcast
4:30 PM 48.2 °F - 46.4 °F 93% 29.95 in 3.1 mi South 18.4 mph - N/A   Mostly Cloudy
5:00 PM 50.0 °F - 48.2 °F 94% 29.92 in 6.2 mi South 20.7 mph - N/A   Partly Cloudy
5:30 PM 51.8 °F - 46.4 °F 82% 29.92 in - South 16.1 mph - N/A   Clear
6:00 PM 50.0 °F - 46.4 °F 87% 29.92 in - South 19.6 mph - N/A   Clear
6:30 PM 50.0 °F - 46.4 °F 87% 29.92 in - South 16.1 mph - N/A   Clear
7:00 PM 48 °F - 44 °F 81% 29.93 in 6 mi SE 15.7 mph - -   Mostly Cloudy
7:00 PM 48.2 °F - 44.6 °F 87% 29.92 in - South 17.3 mph - N/A   Clear
7:30 PM 48.2 °F - 46.4 °F 93% 29.92 in - South 15.0 mph - N/A   Clear
8:00 PM 48.2 °F - 46.4 °F 93% 29.95 in - South 18.4 mph - N/A   Clear
8:30 PM 50.0 °F - 46.4 °F 87% 29.95 in - South 13.8 mph - N/A   Clear
9:00 PM 48.2 °F - 46.4 °F 93% 29.95 in - SSE 15.0 mph - N/A   Clear
9:30 PM 48.2 °F - 46.4 °F 93% 29.95 in - South 13.8 mph - N/A   Clear
10:00 PM 47 °F - 46 °F 95% 29.95 in 6 mi SSE 17.9 mph - -   Mostly Cloudy
10:00 PM 48.2 °F - 46.4 °F 93% 29.95 in - South 16.1 mph - N/A   Clear
10:30 PM 48.2 °F - 46.4 °F 93% 29.95 in 6.2 mi South 16.1 mph - N/A   Scattered Clouds
11:00 PM 48.2 °F - 46.4 °F 93% 29.95 in 6.2 mi South 15.0 mph - N/A   Scattered Clouds
11:30 PM 48.2 °F - 46.4 °F 93% 29.95 in 6.2 mi South 13.8 mph - N/A   Scattered Clouds